GFSGBSN_2pvu_pres_249.txt.gz
Presure
136 109 158 118 106 121 119 100 99 113 114 108 121 110 119 110 121 118 133 114 122 109 124 114 106 118 114 123 112 121 107 114 116 122 112 104 113 114 122 119 107 115 144 118 95 115 140
126 150 127 141 100 107 170 121 101 115 134 119 99 119 104 152 111 119 112 118 118 116 108 107 109 105 108 108 112 110 124 124 105 110 130 119 116 118 116 95 138 119 144 107 109 105 135
162 132 113 134 134 150 123 173 97 130 144 128 102 135 112 105 109 137 113 122 108 130 107 109 110 117 121 115 120 105 112 111 117 123 115 118 137 101 134 121 121 152 163 125 115 174 135
168 148 185 172 161 147 143 144 174 99 149 125 120 109 102 105 128 154 120 112 100 114 107 111 118 108 115 116 99 97 120 107 104 108 109 110 98 110 126 135 169 158 143 117 112 133 126
185 181 179 173 139 130 122 130 130 170 118 100 141 179 113 129 103 165 98 102 111 124 107 111 126 100 93 117 122 108 112 101 126 128 123 124 105 115 131 127 132 106 145 142 163 127 120
188 183 184 174 171 151 155 137 174 143 156 150 139 111 173 173 138 123 112 116 114 122 128 134 134 123 115 104 152 147 117 120 130 107 134 135 127 146 140 121 108 125 168 165 146 126 152
195 198 161 166 180 187 173 181 175 125 172 140 127 146 129 173 150 159 124 136 182 139 149 148 131 135 157 147 128 136 155 127 123 130 141 160 151 111 107 139 161 152 144 137 118 128 136
178 165 181 161 196 186 168 171 162 157 168 159 181 145 171 149 124 141 163 152 152 143 187 164 176 169 147 128 155 108 104 101 147 122 149 111 135 148 172 141 145 127 166 108 125 124 139
179 162 134 157 160 160 157 168 156 170 160 186 159 165 180 179 123 146 142 165 177 128 158 161 149 148 136 122 134 146 169 151 114 163 130 156 145 144 130 142 138 139 141 130 124 126 125
185 207 202 222 190 187 190 139 176 182 163 182 110 181 177 179 159 136 145 128 146 145 183 177 170 172 149 171 194 111 144 140 119 129 168 112 126 132 122 136 121 156 130 140 169 175 176
180 163 178 195 208 198 232 230 195 194 190 182 182 201 139 123 192 168 161 142 128 188 120 148 139 171 113 144 121 201 188 166 156 130 139 124 123 164 139 131 159 153 132 166 181 170 182
205 181 172 181 185 186 186 196 203 208 194 227 203 198 209 205 167 181 124 191 168 120 116 146 147 135 206 147 208 122 208 155 135 132 154 157 159 152 161 148 141 150 191 147 166 185 187
170 206 163 181 165 181 183 185 184 183 188 179 217 159 199 220 205 198 180 183 197 117 181 204 189 142 170 139 150 174 173 169 192 176 182 121 140 164 166 166 177 181 185 178 188 192 195
205 186 174 189 135 149 156 182 181 184 182 185 181 136 179 191 166 189 159 184 181 208 195 165 163 228 176 148 144 186 151 182 197 196 198 199 208 224 179 179 181 185 201 193 189 199 191
199 201 175 190 166 188 199 146 186 185 170 178 178 185 180 190 160 182 144 191 206 226 204 204 199 137 221 217 209 202 199 196 199 196 194 184 182 187 193 188 197 190 196 190 196 197 193
196 197 199 186 177 209 189 187 191 171 154 196 153 175 185 171 169 190 209 181 180 172 186 206 146 198 225 239 223 239 214 222 192 193 186 189 186 194 195 199 202 199 198 202 201 200 192
201 163 185 164 184 188 197 173 174 176 124 171 180 175 185 194 201 176 165 162 179 205 202 202 223 213 216 204 202 210 203 239 243 197 203 202 206 208 205 202 202 203 204 200 201 202 219
218 230 195 204 201 165 175 194 201 196 184 183 167 197 196 186 196 187 201 191 178 188 219 202 167 169 206 217 222 221 282 234 241 250 249 233 233 222 220 213 211 206 243 240 245 235 223
209 171 184 176 157 203 195 177 197 176 190 184 193 191 197 182 171 172 168 190 190 194 208 177 201 192 190 195 188 195 211 277 273 274 265 263 258 252 254 243 248 251 246 240 224 221 214
175 203 189 191 202 193 193 198 197 195 186 179 175 194 192 199 198 192 186 180 182 184 173 216 174 203 205 193 208 196 211 218 221 277 268 259 254 252 246 243 240 234 233 228 216 200 210
175 199 220 192 145 190 198 192 198 196 196 205 179 195 194 191 189 186 184 206 192 205 195 199 187 196 188 203 201 207 206 199 203 207 237 234 232 241 234 233 233 211 216 225 222 213 212
246 181 214 240 136 219 191 206 164 185 183 203 189 203 140 141 211 181 179 197 163 152 178 194 193 188 223 187 211 197 192 194 201 230 233 221 209 202 207 201 197 223 219 213 210 198 208
215 235 175 227 181 171 215 205 204 181 194 166 194 196 195 196 194 200 203 166 203 186 197 203 182 191 172 164 202 211 188 200 195 199 199 192 204 197 201 199 182 207 177 183 211 200 194
320 322 280 210 188 239 135 224 224 200 147 197 200 186 206 190 180 206 178 199 189 179 147 195 188 222 157 208 211 211 184 206 190 198 184 198 195 185 171 160 185 205 211 205 197 206 213
310 285 238 167 214 233 236 191 126 200 201 175 182 188 186 181 203 210 194 206 210 208 193 200 160 175 185 166 192 176 214 188 211 198 197 184 178 158 188 179 211 171 197 207 191 218 191
323 308 318 300 270 139 190 146 223 190 226 208 171 167 220 198 183 219 213 191 213 193 186 149 157 193 172 206 203 231 178 188 225 178 192 153 192 154 175 171 164 194 166 212 210 176 188
314 309 306 301 312 255 180 212 198 220 204 210 235 189 182 228 191 191 191 197 207 185 213 211 159 186 177 177 169 172 176 211 160 205 188 171 139 150 153 158 185 205 211 197 173 202 216
330 308 303 305 241 237 235 263 163 218 216 211 185 204 193 223 212 198 219 210 210 190 192 200 198 194 204 196 192 182 196 196 169 164 175 198 161 163 203 169 171 182 192 200 197 208 194
349 323 312 296 297 296 272 249 254 215 234 298 226 249 230 233 217 176 204 216 221 213 160 200 169 165 200 173 173 204 190 172 199 200 215 208 200 171 189 200 208 187 190 198 197 193 210

GFSGBSN_2pvu_pres_252.txt.gz
Presure
129 133 140 115 97 145 115 128 158 104 137 122 124 126 107 109 112 119 119 156 132 111 126 106 130 105 129 119 109 118 117 113 126 111 115 105 109 106 135 85 103 113 108 105 112 156 141
146 153 133 137 144 139 154 122 150 150 111 126 117 115 107 103 109 124 104 123 125 112 114 119 117 143 123 106 125 115 115 108 99 110 117 113 101 115 124 128 114 127 115 106 119 109 133
170 141 136 126 173 123 124 139 141 145 137 109 139 100 118 143 147 114 111 121 126 144 111 103 152 112 122 117 109 103 109 119 127 115 118 98 95 93 104 110 103 111 105 126 122 137 132
167 164 168 131 166 161 124 152 130 116 139 134 111 142 113 103 112 114 111 107 116 135 109 116 161 142 110 126 117 109 110 94 119 127 109 93 115 147 124 123 136 130 117 142 145 153 167
171 166 162 164 163 160 159 143 147 135 117 135 139 123 131 157 98 109 124 117 124 115 110 118 102 145 152 105 100 101 93 110 101 112 116 138 111 114 114 132 111 144 129 130 117 153 160
168 161 163 180 171 171 165 168 150 131 113 171 153 106 143 157 92 137 138 117 111 121 106 119 140 115 157 104 133 146 169 126 153 129 111 147 134 149 145 140 154 162 110 157 149 148 123
187 175 172 161 167 172 176 146 122 165 170 149 182 155 125 137 141 160 139 147 125 147 107 145 111 145 134 108 113 146 141 132 158 155 172 153 132 109 96 103 111 158 152 141 164 131 126
201 206 198 198 203 176 174 178 170 183 168 172 163 168 161 168 131 136 127 133 138 144 146 122 131 145 91 106 182 165 172 117 105 167 167 132 119 145 173 162 131 140 136 148 131 123 154
184 192 205 195 204 207 169 149 185 160 163 176 178 158 143 156 145 126 175 124 154 136 107 142 142 152 146 139 137 139 139 150 174 150 154 149 176 132 171 130 145 162 163 164 141 166 153
183 177 193 200 189 191 183 191 167 179 173 167 179 175 141 173 171 172 159 180 169 157 146 140 121 200 129 128 157 164 157 125 135 130 143 154 109 122 126 180 129 153 128 147 164 165 165
181 181 182 178 189 198 205 193 173 191 239 209 180 175 191 163 174 184 181 180 175 173 158 169 134 140 158 195 157 130 141 192 180 129 151 154 124 167 154 125 179 128 182 162 177 175 171
167 182 165 177 189 193 173 170 196 189 175 185 206 178 173 169 179 188 181 166 158 172 123 122 172 175 147 181 141 132 188 136 126 128 177 131 127 144 143 175 149 160 195 178 196 185 191
176 173 165 176 173 175 182 185 180 182 162 183 173 180 182 159 165 161 164 191 167 174 126 188 185 187 192 183 188 186 191 195 139 160 196 163 162 201 119 172 188 197 191 186 198 204 201
196 168 175 177 176 171 170 173 196 197 200 175 177 181 164 150 177 179 178 180 184 184 182 184 190 188 195 198 187 193 149 202 124 221 169 187 201 197 200 194 193 196 195 189 190 191 187
196 187 185 208 197 188 180 179 181 183 175 185 189 204 188 204 207 212 225 189 210 227 217 209 174 200 189 187 205 158 210 221 210 213 203 191 222 188 225 215 191 209 183 217 210 185 183
197 177 182 193 189 205 176 176 164 151 175 183 178 171 190 199 189 178 174 174 195 173 180 176 194 164 197 195 199 173 173 189 198 176 181 219 214 204 205 210 216 209 191 190 195 191 192
182 204 180 193 187 187 203 175 171 180 174 181 168 176 162 158 183 177 181 178 179 189 186 161 188 167 184 177 184 197 185 209 183 196 222 225 210 226 251 237 243 242 242 238 234 227 220
186 205 185 196 205 195 187 198 202 190 184 192 157 179 153 173 165 174 179 152 176 167 190 161 165 182 187 164 162 196 177 179 208 172 212 190 200 253 196 197 238 250 255 237 247 244 240
176 159 186 189 204 179 196 187 185 201 186 191 196 187 185 169 161 170 139 180 171 206 184 156 192 143 174 207 198 188 206 230 202 209 188 185 184 198 200 189 246 243 225 246 238 237 238
242 153 210 159 158 193 187 177 200 181 192 177 192 210 198 180 190 191 199 199 182 172 195 177 197 186 172 188 184 202 184 178 202 189 206 194 187 195 183 196 188 251 223 240 238 233 225
227 250 134 241 193 154 184 162 188 182 176 171 194 194 182 197 205 167 187 196 199 174 191 184 176 194 191 157 181 191 196 184 186 178 191 190 189 181 190 196 256 238 239 216 212 223 232
258 244 226 233 249 140 224 134 197 170 229 199 193 170 172 176 196 207 204 166 188 187 178 189 189 168 198 175 196 180 165 186 201 176 188 229 196 178 190 176 224 208 198 200 222 204 166
247 223 241 193 205 219 205 213 199 187 178 209 207 189 181 194 187 180 191 186 189 187 193 192 199 169 192 187 208 178 198 188 203 177 166 170 193 204 195 197 181 192 190 193 197 160 198
261 133 235 200 190 231 216 219 217 135 232 192 186 201 166 190 202 185 193 185 186 193 189 196 194 197 179 191 199 184 204 200 195 183 189 213 215 212 168 202 193 201 191 178 174 175 169
265 262 235 231 249 220 236 237 209 198 212 136 205 197 219 189 177 173 163 198 182 205 213 183 212 190 181 209 159 204 176 188 174 179 184 190 201 184 175 212 197 163 163 164 158 196 151
338 258 218 246 250 243 253 256 244 216 218 208 233 211 188 189 197 192 218 161 166 175 179 176 209 185 185 188 192 202 202 189 194 143 170 163 176 209 199 187 196 191 189 156 155 143 158
367 345 343 304 240 246 253 165 250 221 239 224 201 205 166 168 223 216 204 212 175 181 180 179 193 179 183 184 207 207 212 189 209 151 166 176 175 167 184 182 213 206 213 182 165 163 165
335 329 329 334 331 306 322 300 233 189 211 253 203 239 192 214 184 212 158 181 198 192 167 199 197 196 195 206 194 199 218 172 201 183 179 165 208 176 158 175 217 175 158 214 195 158 201
350 348 336 344 327 322 306 306 304 234 224 247 170 257 224 235 205 216 178 188 196 202 190 208 184 183 164 176 221 200 207 187 217 216 190 200 209 196 187 186 197 203 209 160 174 217 190

GFSGBSN_2pvu_pres_255.txt.gz
Presure
124 123 125 155 123 126 156 157 139 114 104 150 112 165 140 106 133 127 131 120 124 106 108 108 120 108 119 129 114 114 116 107 116 119 118 106 127 95 110 101 107 106 137 130 116 133 128
109 129 127 168 112 126 128 105 153 145 116 113 123 109 103 148 108 121 107 149 121 109 109 125 118 118 111 112 137 113 124 127 134 112 122 108 136 109 108 122 110 108 140 111 99 132 107
162 165 100 161 136 139 170 116 159 106 127 161 101 120 102 128 157 112 117 123 150 109 131 124 109 118 127 117 108 147 107 115 116 135 114 110 120 102 95 124 114 135 129 147 158 165 130
162 159 162 150 169 163 150 148 128 144 136 141 134 139 97 117 139 164 146 144 116 110 104 103 138 105 112 142 124 125 113 112 123 113 130 108 112 105 155 120 158 116 109 151 147 120 148
124 155 157 153 163 165 135 133 173 125 127 128 118 164 143 112 102 100 125 125 133 129 130 132 107 127 117 114 107 114 116 110 118 130 122 104 109 118 120 125 142 134 158 171 110 139 171
165 167 155 157 160 166 166 168 167 167 134 149 125 132 143 138 126 143 114 96 104 142 153 98 110 113 151 144 104 101 99 126 136 120 111 122 151 104 111 164 161 147 156 125 115 173 180
186 173 162 163 157 161 163 178 157 158 130 165 115 149 122 116 137 145 122 123 104 115 107 126 102 131 152 133 137 120 109 106 129 149 104 134 158 182 115 116 142 157 147 146 146 146 132
164 187 176 162 162 162 162 170 162 171 140 169 169 167 156 164 155 164 130 128 136 107 130 123 140 119 148 140 137 130 105 113 144 134 154 109 145 134 136 157 179 139 142 149 137 131 148
162 191 172 177 168 173 163 163 178 175 170 165 165 166 176 167 155 129 142 152 117 150 148 142 146 134 145 144 133 142 121 153 151 159 140 108 132 171 162 170 208 163 119 190 151 175 193
204 192 198 169 167 165 171 181 177 176 165 157 171 173 146 167 177 172 174 149 137 132 169 162 179 149 162 165 146 167 157 142 155 153 164 156 117 125 145 178 190 190 136 143 136 178 156
141 146 182 194 200 192 201 199 190 185 178 178 163 160 169 174 163 166 111 174 175 152 159 170 153 136 125 163 173 156 153 180 178 167 161 153 170 188 146 174 178 149 204 188 227 228 207
173 161 187 182 181 180 175 185 184 173 179 174 175 179 181 168 181 199 182 172 186 181 197 182 178 186 183 205 176 187 206 188 141 158 180 173 167 185 189 195 192 200 151 192 215 189 188
173 167 188 185 186 194 168 176 188 201 206 185 191 209 161 172 184 176 174 183 181 175 177 181 195 185 187 186 181 186 191 149 156 183 144 170 187 195 201 197 158 204 183 204 216 206 202
182 170 171 183 165 172 183 165 151 188 198 204 164 185 191 187 186 188 195 185 189 195 196 196 197 186 179 171 172 175 165 184 191 192 191 196 202 215 214 225 193 199 202 224 223 210 214
157 167 175 187 172 182 181 163 184 185 180 187 191 190 190 174 185 187 170 184 170 209 186 189 188 174 183 177 166 165 183 185 186 191 213 165 221 197 234 230 213 212 209 211 211 205 196
129 193 184 172 184 171 161 197 171 180 174 170 180 201 188 183 195 189 180 184 182 175 176 175 172 172 170 179 184 212 215 207 203 160 194 186 170 186 177 189 209 197 207 208 199 205 187
205 218 168 167 182 169 189 177 174 171 164 168 175 175 182 191 184 169 177 165 169 184 180 175 178 172 195 193 190 194 183 178 195 177 169 150 195 229 192 192 197 209 201 203 205 184 218
176 144 209 204 166 198 174 195 196 163 163 185 173 178 178 172 187 205 194 162 158 181 181 187 188 187 187 188 184 185 192 186 178 181 228 212 237 176 184 217 203 197 206 197 187 181 195
214 153 182 209 198 154 171 198 176 195 186 170 187 190 174 170 160 168 168 174 197 169 184 182 173 174 185 173 178 183 159 162 198 226 215 214 143 198 155 218 210 186 193 187 191 204 187
194 200 190 207 184 203 202 208 202 178 189 169 188 171 168 178 159 162 160 183 168 150 174 164 169 167 173 182 177 181 153 169 220 198 208 175 190 200 175 195 177 209 183 210 191 195 189
201 219 149 186 216 167 190 131 201 193 180 207 193 195 178 185 167 193 189 170 165 167 159 181 163 161 171 181 184 177 200 194 208 197 209 181 201 175 176 198 192 179 192 192 204 203 204
257 260 202 225 188 195 193 156 184 203 205 202 180 185 193 203 186 204 192 191 174 170 178 186 174 180 133 183 165 165 170 134 182 200 200 195 202 193 183 200 195 177 189 196 199 207 187
220 251 244 221 143 196 181 205 214 196 195 200 170 212 181 187 191 176 199 181 180 193 184 187 181 209 175 169 195 189 194 198 183 207 189 200 158 191 188 202 191 173 181 191 177 204 211
270 272 223 228 216 191 173 189 180 149 189 170 212 155 180 199 184 186 184 189 177 165 179 165 178 203 166 170 196 199 205 203 192 203 208 202 206 197 204 191 183 184 187 179 188 191 213
267 253 269 237 250 228 248 225 220 132 143 204 168 215 168 159 200 201 166 166 183 203 198 186 189 181 206 197 187 204 170 181 173 171 207 171 209 213 199 198 182 176 165 206 196 210 191
322 280 256 266 251 240 235 254 224 199 165 210 189 198 155 190 189 155 173 183 167 205 168 199 198 163 210 194 178 182 167 169 171 162 181 183 190 213 220 205 191 172 178 169 199 187 167
315 311 268 263 257 252 240 250 191 243 239 184 212 216 215 183 197 169 191 202 181 178 205 175 190 194 204 186 210 190 161 193 174 186 203 207 172 166 195 204 176 209 163 193 207 187 161
310 311 326 327 239 262 245 171 259 237 245 249 188 228 221 206 216 178 196 224 173 195 189 175 209 198 180 187 213 168 219 188 195 165 191 203 191 197 192 215 212 182 212 169 193 173 197
297 297 309 310 327 331 251 241 251 182 236 238 170 257 237 226 245 195 162 179 214 200 206 185 197 208 209 165 159 196 166 212 158 167 199 177 190 206 214 182 172 195 195 196 208 200 180

GFSGBSN_2pvu_pres_258.txt.gz
Presure
142 148 147 108 128 127 152 131 121 112 95 99 128 104 141 117 123 106 116 143 113 113 121 115 119 123 116 111 120 129 125 110 122 120 111 118 124 128 128 116 110 110 90 102 103 108 128
153 144 151 149 92 115 140 126 113 96 104 106 150 123 122 103 116 144 134 150 119 116 120 113 107 111 127 110 109 117 112 136 112 127 134 130 110 121 113 113 122 102 134 117 106 103 117
140 145 111 155 143 149 116 126 142 135 128 128 96 116 124 121 130 139 122 159 104 154 142 108 112 116 150 108 107 115 118 144 150 99 113 112 144 154 121 110 103 138 119 135 146 118 160
136 158 155 163 158 163 138 121 123 111 155 130 133 136 100 151 107 144 126 101 125 107 146 116 123 121 111 118 115 112 131 115 104 108 127 140 114 119 117 109 139 143 125 139 115 135 131
157 156 157 154 160 155 143 117 131 138 122 153 126 135 126 127 137 139 146 116 103 147 113 131 118 115 147 102 110 115 101 144 115 117 134 104 112 125 128 127 136 110 123 148 136 121 139
166 155 165 169 174 150 149 137 140 154 109 121 158 144 172 142 160 131 112 115 157 141 145 121 135 111 128 156 126 160 100 130 111 157 147 110 108 122 111 104 160 135 108 114 159 132 161
164 169 182 166 152 153 166 138 134 175 154 154 141 159 165 168 118 137 163 140 129 112 135 135 92 133 143 104 113 142 128 128 123 103 141 138 127 172 110 124 163 153 129 116 141 163 180
163 169 170 174 173 178 171 166 167 179 182 177 170 155 149 150 151 169 142 144 137 125 125 155 139 118 102 142 149 127 115 124 128 138 130 148 139 133 140 124 146 141 168 166 157 172 167
167 172 161 154 165 164 169 170 166 165 167 165 163 166 155 163 128 153 170 123 136 120 123 173 129 122 136 160 128 147 126 143 130 154 175 169 157 139 165 175 169 161 166 177 171 192 190
167 202 155 157 185 172 169 157 153 158 156 160 167 167 166 172 160 165 124 129 162 147 132 144 156 157 148 169 130 170 117 122 148 147 143 158 186 186 149 170 171 191 194 180 185 160 199
175 172 167 162 163 162 162 218 166 166 163 173 178 153 178 162 163 168 172 166 186 167 181 158 171 151 176 184 163 143 123 159 116 147 160 178 164 150 199 204 196 183 184 189 199 208 216
204 160 207 181 174 184 200 183 166 182 169 177 182 178 183 175 178 163 172 173 150 169 170 176 176 175 172 169 185 181 208 204 153 194 186 205 201 192 191 184 171 184 166 214 224 196 199
184 206 196 193 187 195 187 203 175 176 179 170 179 182 204 178 184 174 176 160 174 173 181 169 175 178 168 178 180 204 204 200 200 198 210 208 196 196 186 165 187 202 205 185 177 184 176
200 189 195 200 199 194 176 176 199 199 174 180 181 172 188 187 181 181 172 206 176 178 183 176 155 182 177 182 178 188 196 205 209 185 200 199 187 188 173 193 228 204 169 172 174 174 174
192 190 201 184 193 211 198 209 188 176 188 194 175 182 182 210 190 183 172 177 177 179 170 165 175 171 179 179 193 190 186 179 195 199 200 188 177 179 234 202 177 209 183 190 216 174 223
197 192 180 194 172 189 185 189 198 184 184 163 188 185 185 158 187 171 186 184 185 186 185 191 199 185 171 181 188 187 180 192 180 183 189 189 198 201 193 207 185 184 218 194 183 183 228
197 199 190 178 179 186 171 203 188 193 192 193 172 178 181 193 178 195 185 174 149 198 195 181 180 186 191 180 173 189 176 170 177 192 205 214 206 183 177 184 177 184 213 184 202 187 199
219 218 175 194 194 179 185 173 186 183 184 185 191 193 173 190 154 187 179 190 169 196 190 180 184 173 190 192 189 184 175 177 176 181 162 186 174 191 180 184 177 219 188 205 211 193 197
223 179 200 150 170 186 179 186 166 182 179 186 183 167 180 175 182 187 182 149 179 181 179 179 183 172 170 180 169 186 194 182 183 177 181 190 193 185 189 168 196 187 142 202 153 199 204
209 202 224 194 195 187 175 184 185 156 175 179 181 170 185 186 179 182 180 174 167 176 179 157 171 182 189 165 181 173 164 176 196 181 179 176 179 184 193 207 207 156 205 214 188 163 202
146 179 201 223 132 178 193 185 187 143 172 176 185 176 165 169 171 182 181 200 186 182 176 168 160 183 184 168 168 177 196 162 176 179 182 172 194 198 209 216 199 140 216 191 202 204 194
125 204 204 208 179 220 203 226 189 174 157 172 179 161 168 194 156 178 159 162 162 166 174 173 169 156 162 163 192 160 169 180 183 182 181 194 192 188 212 212 217 217 198 210 214 198 209
244 116 210 178 206 197 126 196 174 209 212 174 148 191 189 174 172 175 187 171 176 175 168 171 191 174 186 162 173 154 143 165 187 196 154 174 194 168 213 213 175 183 183 189 189 203 143
264 238 238 216 165 204 209 175 197 206 195 215 204 192 205 160 193 195 158 177 183 178 180 187 189 186 184 174 179 177 182 212 196 190 200 199 188 179 192 185 176 173 187 213 195 204 212
264 244 258 250 215 196 235 138 221 169 201 192 209 132 210 149 209 179 180 186 209 191 199 189 217 178 190 193 170 175 166 178 202 176 185 168 164 181 157 174 190 190 180 186 194 185 210
272 275 261 246 270 223 233 232 213 158 204 216 203 188 178 187 196 182 212 185 201 190 200 211 206 183 171 181 190 159 172 203 201 160 176 194 189 181 156 184 187 177 162 178 194 194 208
290 278 260 267 228 265 260 241 237 222 159 227 201 147 194 195 207 199 200 192 183 193 196 166 211 186 188 203 181 181 193 192 188 167 181 183 195 200 164 172 157 194 170 182 184 202 208
288 286 278 261 248 244 264 270 261 229 240 227 219 198 126 196 207 193 188 177 192 170 177 209 199 203 211 191 188 174 196 191 192 166 170 164 177 193 153 186 154 198 197 181 180 194 202
298 287 276 270 264 265 265 262 147 254 247 250 221 217 249 240 227 221 205 211 219 195 196 182 183 215 195 201 185 197 160 176 183 188 209 161 179 198 181 162 181 187 195 201 200 178 191